[[{"header":{"parameterUnit":"m.s-1","parameterCategory":2,"la1":30.2991,"la2":30.254,"lo1":-89.0895,"lo2":-89.0444,"dy":0.0017,"dx":0.0017,"nx":28,"ny":28,"refTime":"2023-07-30T21:00:00:Z","depth":"0","parameterNumber":2,"parameterNumberName":"U-component_of_CURRENTS"},"data":[0,0,0,0,0,0,0,0,0,0,0,0,0,0,0,0,0,0,0,0,0,0,0,0,0,0,0,0,0,0,0,0,0,0,0,0,0,0,0,0,0,0,0,0,0,0,0,0,0,0,0,0,0,0,0,0,0,0,0.4876,0.4877,0,0.495,0.4951,0.4952,0.4986,0.4986,0.4986,0.4986,0.4959,0.4959,0.4958,0,0,0,0,0,0,0,0,0,0,0,0,0,0.4828,0.4829,0.4876,0.4877,0.4878,0.495,0.4951,0.4952,0.4986,0.4986,0.4986,0.4986,0.496,0.4959,0.4958,0,0,0,0,0,0,0,0,0,0,0,0,0,0.487,0.4829,0.4876,0.4903,0.4907,0.495,0.4951,0.4953,0.4986,0.4986,0.4986,0.4986,0.496,0.4959,0.4958,0.4954,0,0,0.4955,0.4955,0,0,0,0,0,0,0,0,0.4868,0.4872,0.4898,0.4901,0.4905,0.4959,0.4925,0.4948,0.4986,0.4956,0.4986,0.4986,0.495,0.495,0.4966,0.4953,0.4952,0.4955,0.4955,0.4954,0.4954,0,0,0,0,0,0,0,0.4865,0.4869,0.4905,0.4899,0.4904,0.4935,0.494,0.493,0.4951,0.4958,0.4961,0.497,0.4951,0.4967,0.4965,0.4952,0.4955,0.4954,0.4954,0.4953,0.5067,0.5071,0,0,0,0,0,0,0.4852,0.4866,0.4903,0.4908,0.4886,0.4935,0.4941,0.4942,0.4953,0.4956,0.497,0.4971,0.4968,0.4966,0.4964,0.5121,0.4954,0.4953,0.4953,0.5064,0.5068,0.5072,0,0,0,0,0,0,0.4851,0.4855,0.49,0.4889,0.4897,0.4936,0.4936,0.4943,0.4968,0.4963,0.4963,0.4989,0.4968,0.4965,0.5004,0.5114,0.4953,0.4952,0.506,0.5065,0.507,0.5332,0,0,0,0,0,0,0.4849,0.4853,0.4849,0.4888,0.4897,0.4969,0.4937,0.4945,0.4973,0.4976,0.4979,0.4976,0.4968,0.5006,0.5003,0.511,0.4951,0.5055,0.5062,0.5068,0.5319,0.5346,0.5369,0,0,0,0,0,0.4847,0.4857,0.4848,0.4853,0.489,0.4972,0.4982,0.5008,0.4974,0.5021,0.502,0.4976,0.5047,0.5008,0.5003,0.5113,0.5052,0.506,0.5068,0.5308,0.534,0.5368,0,0,0,0,0,0,0.4827,0.4863,0.4854,0.4869,0.4931,0.4979,0.501,0.5012,0.5046,0.5038,0.5012,0.5013,0.5093,0.5049,0.5006,0.5162,0.5045,0.5053,0.5229,0.5259,0.5284,0.5337,0.495,0,0,0,0,0,0.4818,0.4842,0.4887,0.4905,0.4931,0.4963,0.4991,0.5018,0.505,0.5065,0.5061,0.5067,0.5122,0.5144,0.516,0.523,0.5241,0.5297,0.5323,0.5344,0.5384,0.5511,0.5554,0.5099,0.5099,0.5098,0,0,0.4818,0.4837,0.4851,0.4904,0.4939,0.503,0.4982,0.5047,0.5135,0.5052,0.5142,0.5142,0.5154,0.5264,0.5296,0.5244,0.5479,0.5355,0.5374,0.5402,0.5525,0.557,0.561,0.5104,0.5103,0.5102,0,0,0.4858,0.4846,0.4895,0.496,0.5028,0.5071,0.5092,0.515,0.519,0.5271,0.5259,0.5338,0.5356,0.5445,0.548,0.5641,0.5599,0.562,0.5808,0.5933,0.5973,0.6008,0.6084,0.6124,0.5644,0.5645,0.5645,0,0.4854,0.493,0.4929,0.5011,0.509,0.5097,0.5212,0.5262,0.5328,0.5392,0.5329,0.5475,0.5472,0.5681,0.5752,0.571,0.5739,0.5701,0.5972,0.6007,0.6038,0.6108,0.6149,0.5658,0.5657,0.5655,0.5654,0,0.4957,0.5029,0.5073,0.5187,0.5264,0.537,0.5448,0.5518,0.5539,0.5598,0.576,0.5782,0.588,0.5906,0.5883,0.6126,0.606,0.5986,0.5908,0.6102,0.616,0.6198,0.5678,0.5673,0.5669,0.5666,0,0,0.4936,0.5116,0.5131,0.5247,0.5381,0.5472,0.5615,0.5784,0.5888,0.5958,0.6124,0.6255,0.6246,0.6287,0.6283,0.6403,0.6651,0.6303,0.6303,0.6401,0.6908,0.6689,0.6708,0.6625,0.6633,0.6639,0.6861,0,0.5038,0.5244,0.5299,0.553,0.5673,0.5745,0.5876,0.6014,0.6099,0.6241,0.6337,0.6457,0.6399,0.6448,0.6584,0.6626,0.6761,0.6596,0.6685,0.6688,0.6491,0.6749,0.6323,0.6471,0.6898,0.6904,0.6908,0,0.5151,0.5283,0.5521,0.5759,0.5816,0.5933,0.6168,0.6282,0.6466,0.6522,0.6683,0.6706,0.6936,0.6802,0.7067,0.6958,0.6973,0.699,0.6997,0.6732,0.6542,0.6343,0.6522,0.6304,0.6965,0.6961,0.6957,0,0.5222,0.5458,0.5665,0.5753,0.5986,0.6096,0.6202,0.6377,0.6489,0.6698,0.6794,0.7016,0.7126,0.7234,0.7265,0.7188,0.7495,0.7379,0.7214,0.7195,0.682,0.6755,0.6815,0.7579,0.7579,0.7578,0.7577,0,0.5363,0.5527,0.5711,0.5837,0.6056,0.6166,0.6371,0.6493,0.6658,0.6795,0.693,0.7073,0.7238,0.7393,0.7396,0.7439,0.7613,0.732,0.7276,0.6892,0.6834,0.6606,0.6538,0.7586,0.7584,0.7583,0.7581,0,0.5444,0.5568,0.581,0.6038,0.6113,0.6255,0.6445,0.657,0.6709,0.6896,0.6965,0.7204,0.7379,0.7501,0.7676,0.7586,0.7404,0.7588,0.7102,0.6997,0.6563,0.6524,0.6429,0.6264,0.7466,0.7462,0.7459,0,0.5533,0.5671,0.5921,0.6021,0.6127,0.6314,0.6428,0.6593,0.6687,0.6937,0.7023,0.7266,0.7353,0.7553,0.7451,0.7457,0.7293,0.7062,0.684,0.6556,0.6485,0.6324,0.6181,0.6458,0.6447,0.6438,0.6431,0,0.5691,0.5749,0.5896,0.6081,0.6229,0.6385,0.6532,0.6597,0.6745,0.6848,0.6961,0.7046,0.7194,0.6984,0.6998,0.6949,0.6673,0.6874,0.673,0.5856,0.5541,0.5347,0.6286,0.6351,0.6359,0.6365,0.6369,0.6372,0.5758,0.5845,0.5982,0.6118,0.6276,0.6364,0.6351,0.6441,0.6497,0.6442,0.6708,0.6608,0.6537,0.6458,0.641,0.5973,0.6124,0.5694,0.5726,0.5634,0.5299,0.605,0.5956,0.5961,0.5966,0.597,0.5974,0,0.5842,0.5886,0.6009,0.6121,0.6159,0.6279,0.6338,0.618,0.6049,0.608,0.6031,0.5781,0.553,0.5457,0.5076,0.4839,0.4679,0.4705,0.4386,0.4349,0.5125,0.4895,0.438,0.438,0.438,0.438,0.438,0.4381,0.5893,0.595,0.594,0.5938,0.5973,0.5868,0.5797,0.5587,0.5488,0.5082,0.4819,0.4819,0.4806,0.4529,0.4159,0.4058,0.3823,0.3563,0.3748,0.4251,0.4344,0.4433,0.4201,0.3549,0.3548,0.2691,0.2684,0.2679]},{"header":{"parameterUnit":"m.s-1","parameterCategory":2,"la1":30.2991,"la2":30.254,"lo1":-89.0895,"lo2":-89.0444,"dy":0.0017,"dx":0.0017,"nx":28,"ny":28,"refTime":"2023-07-30T21:00:00:Z","depth":"0","parameterNumber":3,"parameterNumberName":"V-component_of_CURRENTS"},"data":[0,0,0,0,0,0,0,0,0,0,0,0,0,0,0,0,0,0,0,0,0,0,0,0,0,0,0,0,0,0,0,0,0,0,0,0,0,0,0,0,0,0,0,0,0,0,0,0,0,0,0,0,0,0,0,0,0,0,0.015,0.0149,0,0.0109,0.0109,0.0108,0.0063,0.0063,0.0062,0.0061,-0.0009,-0.001,-0.0011,0,0,0,0,0,0,0,0,0,0,0,0,0,0.0161,0.0161,0.015,0.0149,0.0149,0.0109,0.0109,0.0108,0.0064,0.0063,0.0062,0.0061,-0.0009,-0.001,-0.0012,0,0,0,0,0,0,0,0,0,0,0,0,0,0.0142,0.0162,0.015,0.0122,0.0119,0.0109,0.0109,0.0108,0.0064,0.0063,0.0062,0.0061,-0.0008,-0.001,-0.0012,-0.0004,0,0,-0.0018,-0.0018,0,0,0,0,0,0,0,0,0.0143,0.0142,0.0126,0.0124,0.012,0.009,0.0087,0.0069,0.0064,0.0085,0.0061,0.006,0.0022,0.0018,0.0013,-0.0007,-0.001,-0.0018,-0.0019,-0.002,-0.002,0,0,0,0,0,0,0,0.0145,0.0143,0.0134,0.0126,0.0122,0.0102,0.0098,0.0083,0.0059,0.0083,0.0079,0.0075,0.002,0.0015,0.0011,-0.0011,-0.0018,-0.0019,-0.0021,-0.0021,-0.0013,-0.0012,0,0,0,0,0,0,0.0152,0.0145,0.0135,0.0132,0.013,0.0102,0.0098,0.0101,0.006,0.0053,0.0076,0.0073,0.0018,0.0013,0.0008,0.0038,-0.002,-0.0021,-0.0023,-0.0014,-0.0013,-0.0011,0,0,0,0,0,0,0.0153,0.0152,0.0136,0.0137,0.0134,0.0103,0.0106,0.0101,0.0099,0.0055,0.0047,0.0081,0.0017,0.0011,0.0002,0.0034,-0.0022,-0.0024,-0.0016,-0.0014,-0.0012,0.0083,0,0,0,0,0,0,0.0154,0.0153,0.0159,0.0138,0.0134,0.0151,0.0107,0.0101,0.0098,0.0094,0.0056,0.0048,0.0016,0.0005,-0.0,0.003,-0.0026,-0.0018,-0.0015,-0.0013,0.0078,0.0088,0.0096,0,0,0,0,0,0.0154,0.0175,0.016,0.0159,0.0143,0.0152,0.015,0.0124,0.0099,0.0115,0.008,0.005,0.0018,0.0004,-0.0002,0.0029,-0.0019,-0.0016,-0.0013,0.0074,0.0086,0.0096,0,0,0,0,0,0,0.0187,0.0172,0.0155,0.017,0.0168,0.0145,0.0157,0.0134,0.0119,0.0111,0.0063,0.0054,0.0059,0.0032,0.0018,0.0039,-0.0003,-0.0001,0.0065,0.0076,0.0085,0.0144,-0.0027,0,0,0,0,0,0.0197,0.0205,0.019,0.0204,0.0208,0.0183,0.0182,0.0165,0.0147,0.0139,0.0108,0.008,0.0068,0.0061,0.0043,0.0054,0.0064,0.0071,0.0081,0.0088,0.0133,0.0177,0.0196,-0.0001,-0.0001,-0.0001,0,0,0.0212,0.0205,0.0209,0.0211,0.0207,0.0227,0.0182,0.0192,0.0204,0.0134,0.0142,0.011,0.0077,0.0087,0.0088,0.0069,0.0143,0.0092,0.0099,0.0141,0.0183,0.0202,0.022,0.0001,0.0,0.0,0,0,0.0255,0.0247,0.0271,0.0277,0.0276,0.0265,0.0273,0.0256,0.0249,0.0253,0.0205,0.0204,0.0173,0.0167,0.0158,0.0212,0.0188,0.0191,0.029,0.0331,0.0349,0.0364,0.038,0.0396,0.0199,0.0199,0.0199,0,0.0271,0.0298,0.0282,0.0311,0.0323,0.0288,0.0324,0.0318,0.0296,0.0314,0.0272,0.0272,0.0225,0.0267,0.0274,0.0237,0.0246,0.0248,0.0347,0.0362,0.0377,0.0389,0.0406,0.0204,0.0203,0.0203,0.0202,0,0.0334,0.0355,0.0377,0.0398,0.0412,0.0439,0.043,0.0444,0.0426,0.0424,0.046,0.0411,0.0427,0.0396,0.0346,0.0424,0.0391,0.035,0.0324,0.0403,0.0409,0.0425,0.0211,0.0209,0.0208,0.0207,0,0,0.0364,0.0411,0.0418,0.045,0.046,0.0486,0.052,0.0559,0.0617,0.0589,0.0677,0.0628,0.0621,0.0612,0.0555,0.0577,0.065,0.0512,0.0512,0.0539,0.0734,0.0647,0.0655,0.0626,0.0629,0.0632,0.069,0,0.0416,0.0497,0.0497,0.0571,0.0616,0.0609,0.0658,0.0687,0.0709,0.0786,0.0764,0.0817,0.0697,0.0722,0.0725,0.0695,0.0701,0.0638,0.0646,0.0647,0.057,0.0675,0.0628,0.0672,0.0705,0.0708,0.071,0,0.0466,0.0522,0.0608,0.0684,0.0705,0.0745,0.0843,0.0875,0.096,0.0993,0.1045,0.1038,0.1087,0.0967,0.0972,0.094,0.085,0.08,0.08,0.071,0.0592,0.0602,0.0699,0.0459,0.0734,0.0732,0.073,0,0.051,0.059,0.0668,0.0692,0.0776,0.0825,0.0865,0.0948,0.1032,0.1143,0.1256,0.1273,0.1342,0.1259,0.1141,0.1075,0.1142,0.1034,0.0865,0.0856,0.0819,0.08,0.0703,0.1029,0.1029,0.1028,0.1028,0,0.0559,0.0621,0.0702,0.0754,0.0887,0.0893,0.1041,0.1097,0.1223,0.1393,0.1373,0.1538,0.1425,0.1438,0.1264,0.1146,0.1239,0.093,0.089,0.0843,0.0827,0.0615,0.0488,0.103,0.103,0.103,0.1029,0,0.0598,0.0638,0.0755,0.0868,0.0915,0.101,0.1167,0.1287,0.1379,0.1614,0.1676,0.1789,0.1828,0.1672,0.1576,0.1335,0.1062,0.1107,0.1046,0.0997,0.0571,0.0452,0.0352,0.027,0.095,0.0948,0.0947,0,0.0629,0.0692,0.0858,0.097,0.1032,0.1168,0.1287,0.1374,0.152,0.179,0.1939,0.2049,0.2191,0.2003,0.1628,0.1337,0.1083,0.1012,0.0857,0.0586,0.0425,0.0325,0.0257,0.0838,0.0836,0.0834,0.0833,0,0.0719,0.0775,0.0887,0.1109,0.1254,0.1416,0.1582,0.1721,0.1869,0.2101,0.2395,0.2531,0.237,0.2106,0.165,0.1392,0.0831,0.0963,0.0729,0.0386,0.0235,0.0124,0.0734,0.0818,0.082,0.0821,0.0821,0.0822,0.0806,0.0907,0.1062,0.1266,0.1436,0.1637,0.1793,0.2003,0.2267,0.2615,0.2711,0.2971,0.2481,0.1901,0.1524,0.0712,0.0748,0.0415,0.0313,0.0252,0.0115,0.0675,0.067,0.067,0.0671,0.0671,0.0672,0,0.0923,0.1031,0.1222,0.1451,0.1637,0.1702,0.1981,0.216,0.2499,0.285,0.3121,0.3015,0.2421,0.1754,0.0668,0.0136,-0.0033,-0.0149,-0.0295,-0.0317,0.0227,0.0158,-0.0013,-0.0013,-0.0012,-0.0012,-0.0012,-0.0012,0.1002,0.1171,0.1247,0.1557,0.1723,0.1968,0.213,0.2445,0.2734,0.3114,0.3278,0.3373,0.2764,0.0977,-0.0227,-0.047,-0.0753,-0.0863,-0.0966,-0.0634,-0.0589,-0.0547,-0.0642,-0.0978,-0.0979,-0.1472,-0.1477,-0.1481]}],[{"header":{"parameterUnit":"m.s-1","parameterCategory":2,"la1":30.2991,"la2":30.254,"lo1":-89.0895,"lo2":-89.0444,"dy":0.0017,"dx":0.0017,"nx":28,"ny":28,"refTime":"2023-07-30T21:00:00:Z","depth":"2","parameterNumber":2,"parameterNumberName":"U-component_of_CURRENTS"},"data":[0,0,0,0,0,0,0,0,0,0,0,0,0,0,0,0,0,0,0,0,0,0,0,0,0,0,0,0,0,0,0,0,0,0,0,0,0,0,0,0,0,0,0,0,0,0,0,0,0,0,0,0,0,0,0,0,0,0,0.3509,0.3509,0,0.3508,0.3508,0.3507,0.3501,0.3501,0.3501,0.3501,0.3528,0.3529,0.3529,0,0,0,0,0,0,0,0,0,0,0,0,0,0.3469,0.347,0.3509,0.3509,0.351,0.3508,0.3508,0.3507,0.3501,0.3501,0.3501,0.3501,0.3528,0.3528,0.3529,0,0,0,0,0,0,0,0,0,0,0,0,0,0.3476,0.347,0.3509,0.3509,0.3509,0.3508,0.3508,0.3507,0.3501,0.3501,0.3501,0.3501,0.3528,0.3528,0.3529,0.353,0,0,0.3532,0.3532,0,0,0,0,0,0,0,0,0.3476,0.3477,0.3508,0.3509,0.3509,0.3508,0.3504,0.3518,0.3501,0.35,0.3501,0.3501,0.3526,0.3527,0.3521,0.3532,0.3533,0.3532,0.3533,0.3533,0.3533,0,0,0,0,0,0,0,0.3475,0.3477,0.3505,0.3509,0.3509,0.3496,0.3497,0.3506,0.351,0.35,0.3501,0.3506,0.3526,0.352,0.3522,0.3533,0.3532,0.3533,0.3533,0.3534,0.3681,0.3684,0,0,0,0,0,0,0.3484,0.3477,0.3505,0.3506,0.3496,0.3497,0.3498,0.3505,0.3509,0.3511,0.3506,0.3505,0.3518,0.3521,0.3523,0.3635,0.3533,0.3534,0.3534,0.3677,0.3681,0.3685,0,0,0,0,0,0,0.3483,0.3487,0.3506,0.3494,0.3496,0.3498,0.3506,0.3505,0.352,0.3513,0.3515,0.3523,0.3519,0.3522,0.3572,0.3632,0.3534,0.3535,0.3673,0.3679,0.3683,0.3789,0,0,0,0,0,0,0.3482,0.3486,0.3494,0.3494,0.3497,0.3544,0.3506,0.3505,0.3523,0.3523,0.3529,0.353,0.3519,0.3571,0.3573,0.3631,0.3536,0.3669,0.3676,0.3682,0.3781,0.3797,0.3811,0,0,0,0,0,0.3481,0.348,0.3495,0.3498,0.3508,0.3546,0.3547,0.3546,0.3524,0.3554,0.3559,0.3531,0.3613,0.3574,0.3576,0.3636,0.3666,0.3674,0.3681,0.3775,0.3794,0.381,0,0,0,0,0,0,0.3453,0.348,0.3496,0.3501,0.3546,0.3547,0.3555,0.356,0.3581,0.3583,0.3564,0.3568,0.3649,0.3626,0.3583,0.3701,0.3639,0.3648,0.371,0.3728,0.3743,0.3769,0.3536,0,0,0,0,0,0.3458,0.3477,0.3511,0.3525,0.3542,0.3555,0.3566,0.3586,0.3602,0.361,0.3624,0.3641,0.3677,0.3687,0.3725,0.3766,0.38,0.3811,0.3826,0.3838,0.3865,0.4023,0.4055,0.371,0.371,0.371,0,0,0.3443,0.347,0.3474,0.3524,0.3542,0.3566,0.3562,0.3603,0.3638,0.3612,0.3665,0.3704,0.3708,0.378,0.3811,0.3764,0.3943,0.3848,0.3858,0.3878,0.4034,0.4068,0.4098,0.3715,0.3714,0.3714,0,0,0.3446,0.346,0.3487,0.3507,0.3568,0.3593,0.3614,0.3658,0.3696,0.3756,0.3766,0.3843,0.3865,0.3906,0.3915,0.4028,0.4035,0.4043,0.4115,0.4269,0.4299,0.4326,0.4359,0.4389,0.4028,0.4028,0.4028,0,0.3446,0.3467,0.3504,0.3524,0.3561,0.3604,0.3656,0.3676,0.3745,0.3818,0.3791,0.3924,0.3925,0.4028,0.4073,0.4062,0.4124,0.404,0.429,0.4318,0.4344,0.4372,0.4403,0.4034,0.4034,0.4033,0.4032,0,0.3461,0.3469,0.348,0.3533,0.3596,0.3634,0.3701,0.3767,0.3821,0.3882,0.4036,0.4061,0.4153,0.4163,0.4141,0.4331,0.4304,0.4308,0.4244,0.4385,0.4404,0.4435,0.4043,0.4041,0.4039,0.4037,0,0,0.3483,0.3497,0.3503,0.3512,0.361,0.365,0.375,0.3886,0.3952,0.4047,0.4175,0.4259,0.4332,0.4351,0.4366,0.4469,0.4671,0.4473,0.4478,0.4502,0.4962,0.4757,0.4769,0.475,0.4758,0.4764,0.4881,0,0.35,0.3539,0.3577,0.3609,0.3629,0.3714,0.3787,0.3919,0.4049,0.4169,0.4274,0.441,0.4381,0.4465,0.4567,0.4677,0.4768,0.4634,0.4826,0.4829,0.463,0.4805,0.4394,0.4453,0.4911,0.4916,0.492,0,0.3485,0.3537,0.3599,0.3638,0.3663,0.3707,0.3898,0.3971,0.4168,0.4287,0.4472,0.4575,0.4762,0.4711,0.4959,0.4893,0.4951,0.4993,0.5,0.4802,0.4685,0.4399,0.4491,0.497,0.4966,0.4962,0.4959,0,0.3472,0.3512,0.3581,0.3585,0.3669,0.3749,0.3833,0.4037,0.4166,0.4422,0.4594,0.478,0.4898,0.5068,0.5167,0.5125,0.5396,0.5339,0.5185,0.5165,0.4845,0.4786,0.5532,0.5531,0.5531,0.5531,0.5531,0,0.3442,0.3476,0.3553,0.3564,0.3662,0.3738,0.3896,0.4014,0.4243,0.4434,0.4672,0.4856,0.5019,0.5187,0.5259,0.5311,0.5489,0.5239,0.5225,0.4858,0.4802,0.5277,0.5246,0.5535,0.5534,0.5533,0.5533,0,0.3427,0.3448,0.3466,0.3568,0.3636,0.3698,0.3933,0.408,0.4288,0.4562,0.4692,0.4961,0.5178,0.5294,0.5488,0.539,0.5493,0.5456,0.4945,0.4869,0.5116,0.509,0.5306,0.5301,0.5296,0.5292,0.5289,0,0.3422,0.3454,0.3496,0.3561,0.3628,0.3766,0.3939,0.4116,0.4287,0.463,0.4771,0.504,0.5159,0.5313,0.5258,0.5299,0.5446,0.4884,0.4721,0.515,0.5116,0.5095,0.5075,0.4314,0.4303,0.4294,0.4287,0,0.3499,0.349,0.353,0.3618,0.3749,0.3847,0.4055,0.4142,0.437,0.4561,0.4746,0.4852,0.5014,0.4795,0.48,0.4786,0.4844,0.4697,0.5385,0.4417,0.4221,0.4184,0.4196,0.4208,0.4216,0.4221,0.4226,0.4229,0.3574,0.3535,0.3557,0.3659,0.3783,0.3811,0.3798,0.401,0.4078,0.4198,0.4435,0.4442,0.4473,0.4243,0.415,0.4082,0.4406,0.4185,0.4211,0.4247,0.4095,0.3901,0.3792,0.3797,0.3802,0.3806,0.381,0,0.3585,0.3584,0.3657,0.3603,0.3637,0.3764,0.3818,0.3714,0.3668,0.3873,0.3906,0.3562,0.342,0.3544,0.3291,0.3248,0.3219,0.313,0.306,0.3142,0.3214,0.3007,0.2417,0.2412,0.2408,0.2404,0,0,0.3598,0.3578,0.3541,0.346,0.3479,0.338,0.33,0.3198,0.3169,0.3031,0.302,0.325,0.3399,0.285,0.2775,0.2551,0.2825,0.2453,0.3576,0.3575,0.3642,0.3835,0.3609,0,0,0,0,0]},{"header":{"parameterUnit":"m.s-1","parameterCategory":2,"la1":30.2991,"la2":30.254,"lo1":-89.0895,"lo2":-89.0444,"dy":0.0017,"dx":0.0017,"nx":28,"ny":28,"refTime":"2023-07-30T21:00:00:Z","depth":"2","parameterNumber":3,"parameterNumberName":"V-component_of_CURRENTS"},"data":[0,0,0,0,0,0,0,0,0,0,0,0,0,0,0,0,0,0,0,0,0,0,0,0,0,0,0,0,0,0,0,0,0,0,0,0,0,0,0,0,0,0,0,0,0,0,0,0,0,0,0,0,0,0,0,0,0,0,0.0067,0.0066,0,0.0024,0.0024,0.0023,-0.0006,-0.0007,-0.0007,-0.0007,-0.0071,-0.0073,-0.0074,0,0,0,0,0,0,0,0,0,0,0,0,0,0.0069,0.0069,0.0067,0.0066,0.0066,0.0024,0.0024,0.0023,-0.0006,-0.0007,-0.0007,-0.0007,-0.0071,-0.0073,-0.0074,0,0,0,0,0,0,0,0,0,0,0,0,0,0.0051,0.0069,0.0067,0.0046,0.0044,0.0025,0.0024,0.0023,-0.0006,-0.0007,-0.0007,-0.0007,-0.007,-0.0072,-0.0075,-0.0083,0,0,-0.0082,-0.0083,0,0,0,0,0,0,0,0,0.0052,0.0051,0.005,0.0048,0.0045,0.0014,0.0001,-0.0014,-0.0006,0.0012,-0.0007,-0.0007,-0.0044,-0.0049,-0.0056,-0.0087,-0.0089,-0.0082,-0.0083,-0.0084,-0.0085,0,0,0,0,0,0,0,0.0053,0.0052,0.0049,0.005,0.0047,0.0021,0.0019,-0.0002,-0.0015,0.0011,0.0009,0.0005,-0.0046,-0.0054,-0.0058,-0.009,-0.0082,-0.0084,-0.0085,-0.0086,-0.0125,-0.0124,0,0,0,0,0,0,0.0063,0.0054,0.0051,0.0048,0.0049,0.0022,0.0019,0.0024,-0.0014,-0.002,0.0005,0.0004,-0.005,-0.0055,-0.0061,-0.0054,-0.0084,-0.0087,-0.0088,-0.0125,-0.0125,-0.0124,0,0,0,0,0,0,0.0063,0.0063,0.0053,0.005,0.0047,0.0022,0.0028,0.0024,0.0021,-0.0018,-0.0024,0.0008,-0.005,-0.0057,-0.0072,-0.0058,-0.0088,-0.009,-0.0126,-0.0125,-0.0124,-0.0054,0,0,0,0,0,0,0.0064,0.0064,0.0071,0.0051,0.0047,0.0058,0.0028,0.0023,0.0019,0.0017,-0.0018,-0.0024,-0.0051,-0.0069,-0.0075,-0.0061,-0.0091,-0.0126,-0.0125,-0.0125,-0.0056,-0.0051,-0.0046,0,0,0,0,0,0.0064,0.0083,0.0072,0.0071,0.0058,0.006,0.0056,0.0036,0.0019,0.003,-0.0001,-0.0023,-0.0069,-0.007,-0.0077,-0.0064,-0.0126,-0.0125,-0.0125,-0.0059,-0.0052,-0.0046,0,0,0,0,0,0,0.009,0.0081,0.0069,0.0084,0.0078,0.0055,0.0063,0.0044,0.0027,0.0021,-0.0019,-0.0027,-0.0036,-0.006,-0.0061,-0.0075,-0.0101,-0.0102,-0.0049,-0.0042,-0.0037,0.0011,-0.0093,0,0,0,0,0,0.0098,0.0106,0.0095,0.0105,0.011,0.0086,0.0082,0.0067,0.0048,0.0041,0.0014,-0.0016,-0.0039,-0.0048,-0.0072,-0.0077,-0.0091,-0.0074,-0.0069,-0.0064,-0.0031,-0.0035,-0.0027,-0.0122,-0.0122,-0.0122,0,0,0.011,0.0105,0.0109,0.011,0.0105,0.0127,0.0085,0.0087,0.0098,0.0036,0.0043,0.0002,-0.0037,-0.0044,-0.005,-0.0061,-0.0052,-0.0063,-0.0059,-0.0027,-0.0033,-0.0024,-0.0016,-0.0121,-0.0121,-0.0121,0,0,0.0146,0.0138,0.0164,0.0168,0.0164,0.0153,0.0159,0.0142,0.0133,0.0124,0.0082,0.0056,0.0021,0.0001,-0.0016,0.0006,-0.0026,-0.001,0.006,0.0054,0.0063,0.007,0.0036,0.004,-0.0005,-0.0005,-0.0004,0,0.0158,0.0194,0.0171,0.0201,0.0219,0.0174,0.0217,0.0199,0.0174,0.0185,0.0138,0.0097,0.0048,0.0057,0.0055,0.0021,0.0007,0.0039,0.0064,0.0071,0.0078,0.0041,0.0044,-0.0001,-0.0001,-0.0002,-0.0002,0,0.022,0.0249,0.027,0.0296,0.0308,0.0335,0.0319,0.0322,0.0293,0.0278,0.0273,0.0196,0.0189,0.0145,0.0102,0.0126,0.0095,0.0069,0.0054,0.0092,0.0049,0.0052,0.0004,0.0003,0.0002,0.0001,0,0,0.0253,0.0305,0.0314,0.0371,0.0365,0.0405,0.0413,0.044,0.0487,0.0415,0.0472,0.0377,0.0345,0.0325,0.0258,0.0228,0.0223,0.0175,0.0173,0.0153,0.02,0.0136,0.0132,0.0208,0.021,0.0211,0.0141,0,0.0315,0.0413,0.0407,0.0513,0.0576,0.0552,0.0584,0.0593,0.0577,0.0616,0.0526,0.0548,0.0412,0.0421,0.0365,0.0277,0.0239,0.0244,0.0157,0.0155,0.0104,0.0136,0.0161,0.01,0.0144,0.0144,0.0144,0,0.0381,0.045,0.0559,0.0671,0.0699,0.0749,0.0833,0.0854,0.0861,0.0847,0.0822,0.0774,0.0723,0.0609,0.0464,0.0477,0.0358,0.0259,0.0254,0.0185,0.0098,0.0073,0.0102,0.0148,0.0147,0.0147,0.0147,0,0.0456,0.0566,0.0671,0.0704,0.08,0.0862,0.0915,0.0938,0.0995,0.1021,0.1081,0.0979,0.0969,0.0807,0.0576,0.0546,0.041,0.0346,0.0167,0.0159,0.0161,0.0152,0.0266,0.0266,0.0266,0.0266,0.0266,0,0.0534,0.0631,0.0734,0.0806,0.0976,0.0987,0.1137,0.1167,0.1215,0.1332,0.1232,0.1294,0.1025,0.0908,0.0671,0.0424,0.0482,0.02,0.0153,0.018,0.0173,0.0205,0.0199,0.0263,0.0264,0.0265,0.0265,0,0.0601,0.0649,0.0808,0.0952,0.1018,0.1146,0.1306,0.1401,0.1435,0.1587,0.1622,0.1545,0.1392,0.1094,0.082,0.0567,0.0327,0.0224,0.0251,0.0208,0.0053,0.0052,0.0039,0.0036,0.0034,0.0032,0.0031,0,0.0643,0.0721,0.0934,0.1052,0.1135,0.1311,0.1426,0.1503,0.1611,0.1751,0.1846,0.1761,0.1694,0.1237,0.0797,0.0377,0.0325,0.0124,0.0064,0.0083,0.0038,0.0039,0.004,0.0077,0.0076,0.0075,0.0075,0,0.075,0.0813,0.0955,0.1181,0.1352,0.156,0.1744,0.1845,0.1951,0.2069,0.2186,0.2151,0.1747,0.1307,0.0726,0.0443,0.0186,0.0093,0.0149,0.0124,0.0112,0.0069,0.0071,0.0067,0.0068,0.0069,0.0069,0.0069,0.0839,0.0961,0.1132,0.134,0.1531,0.1775,0.1951,0.2104,0.2286,0.242,0.2375,0.2285,0.1842,0.106,0.0614,0.0136,0.0148,-0.0042,-0.0036,-0.0029,-0.0019,-0.0034,-0.0106,-0.0106,-0.0106,-0.0107,-0.0107,0,0.0974,0.1099,0.1284,0.1569,0.1757,0.1859,0.2136,0.2257,0.245,0.25,0.2522,0.2054,0.1596,0.1106,0.0396,-0.0026,-0.0047,-0.0158,-0.0084,-0.0075,-0.0067,-0.0056,-0.0155,-0.0156,-0.0157,-0.0158,0,0,0.1063,0.1251,0.1324,0.1672,0.1869,0.217,0.2318,0.247,0.2535,0.25,0.2402,0.2245,0.169,0.1166,0.0622,0.0237,0.0172,0.0152,0.0231,0.0391,0.0404,0.0034,0.0066,0,0,0,0,0]}],[{"header":{"parameterUnit":"m.s-1","parameterCategory":2,"la1":30.2991,"la2":30.254,"lo1":-89.0895,"lo2":-89.0444,"dy":0.0017,"dx":0.0017,"nx":28,"ny":28,"refTime":"2023-07-30T21:00:00:Z","depth":"4","parameterNumber":2,"parameterNumberName":"U-component_of_CURRENTS"},"data":[0,0,0,0,0,0,0,0,0,0,0,0,0,0,0,0,0,0,0,0,0,0,0,0,0,0,0,0,0,0,0,0,0,0,0,0,0,0,0,0,0,0,0,0,0,0,0,0,0,0,0,0,0,0,0,0,0,0,0.1895,0.1896,0,0.1964,0.1965,0.1966,0.2036,0.2037,0.2038,0.2039,0.2115,0.2116,0.2117,0,0,0,0,0,0,0,0,0,0,0,0,0,0.1789,0.1791,0.1895,0.1896,0.1897,0.1964,0.1965,0.1966,0.2036,0.2037,0.2038,0.2039,0.2114,0.2116,0.2117,0,0,0,0,0,0,0,0,0,0,0,0,0,0.1845,0.1791,0.1895,0.1939,0.1944,0.1964,0.1965,0.1966,0.2036,0.2037,0.2039,0.204,0.2114,0.2115,0.2117,0.2101,0,0,0.2123,0.2123,0,0,0,0,0,0,0,0,0.1842,0.1849,0.1932,0.1936,0.1941,0.1992,0.1955,0.2012,0.2036,0.2002,0.2039,0.204,0.2073,0.2078,0.2089,0.2105,0.2108,0.2123,0.2124,0.2125,0.2125,0,0,0,0,0,0,0,0.1838,0.1846,0.1923,0.1933,0.1938,0.1944,0.1953,0.1966,0.203,0.2005,0.201,0.2016,0.2076,0.2087,0.2091,0.2109,0.2123,0.2124,0.2125,0.2126,0.2286,0.2289,0,0,0,0,0,0,0.1828,0.1843,0.1921,0.1925,0.1893,0.1945,0.1956,0.1975,0.2029,0.2039,0.2015,0.2019,0.2083,0.2089,0.2094,0.2184,0.2125,0.2126,0.2127,0.2283,0.2286,0.229,0,0,0,0,0,0,0.1826,0.1835,0.1918,0.1884,0.1895,0.1945,0.1967,0.1976,0.2028,0.2037,0.2047,0.2062,0.2085,0.2092,0.2151,0.2183,0.2127,0.2129,0.2279,0.2284,0.2288,0.2295,0,0,0,0,0,0,0.1823,0.1834,0.187,0.1884,0.1897,0.1953,0.1965,0.1976,0.2027,0.2034,0.2079,0.2086,0.2086,0.2149,0.2153,0.2184,0.213,0.2275,0.2281,0.2287,0.2291,0.2299,0.2307,0,0,0,0,0,0.1819,0.1839,0.1872,0.1882,0.1936,0.1954,0.1962,0.2001,0.2028,0.2054,0.2097,0.2086,0.219,0.2152,0.2156,0.2189,0.2272,0.2279,0.2286,0.2287,0.2297,0.2306,0,0,0,0,0,0,0.1814,0.1849,0.1884,0.1919,0.1952,0.1966,0.1996,0.2022,0.2076,0.2099,0.2111,0.212,0.2191,0.2199,0.2156,0.2262,0.2236,0.2244,0.2235,0.2245,0.2253,0.2258,0.2132,0,0,0,0,0,0.1829,0.1856,0.1892,0.1925,0.1946,0.1983,0.2006,0.2034,0.2069,0.2096,0.2131,0.2178,0.2217,0.2238,0.2277,0.2316,0.2356,0.2352,0.236,0.2366,0.238,0.2483,0.2501,0.2313,0.2313,0.2313,0,0,0.1831,0.186,0.1875,0.1927,0.1959,0.1984,0.2002,0.2045,0.2075,0.2093,0.2166,0.2209,0.224,0.2296,0.2329,0.2306,0.2441,0.2375,0.2379,0.239,0.2492,0.251,0.2526,0.2318,0.2317,0.2317,0,0,0.1825,0.1884,0.1901,0.193,0.1986,0.2011,0.2032,0.2081,0.2123,0.2186,0.2218,0.2282,0.2341,0.2365,0.2382,0.246,0.2487,0.249,0.2517,0.2617,0.2632,0.2646,0.2708,0.2727,0.2483,0.2483,0.2483,0,0.1839,0.1856,0.1909,0.1932,0.1952,0.2025,0.2041,0.209,0.2158,0.2198,0.222,0.2354,0.2369,0.2433,0.2463,0.2472,0.2536,0.2463,0.2624,0.2639,0.2653,0.2713,0.2734,0.2484,0.2484,0.2484,0.2484,0,0.1827,0.1859,0.1869,0.1926,0.1967,0.1987,0.2056,0.2122,0.219,0.224,0.2354,0.2403,0.2488,0.2499,0.2497,0.2609,0.2624,0.2624,0.2586,0.2672,0.273,0.2752,0.2486,0.2486,0.2485,0.2485,0,0,0.1792,0.1849,0.1854,0.1877,0.1959,0.1983,0.206,0.2135,0.221,0.2305,0.2399,0.2469,0.2545,0.2573,0.2603,0.2669,0.2801,0.2695,0.27,0.2733,0.3025,0.2788,0.2789,0.2846,0.285,0.2854,0.3018,0,0.1765,0.1789,0.1827,0.186,0.1879,0.1965,0.2036,0.2133,0.2234,0.2356,0.2443,0.2556,0.256,0.2628,0.2703,0.2804,0.2865,0.2756,0.2959,0.2964,0.2724,0.2808,0.2868,0.3035,0.304,0.3043,0.3046,0,0.172,0.1749,0.1768,0.1838,0.1859,0.1908,0.2044,0.212,0.2301,0.2394,0.2535,0.263,0.2771,0.2759,0.2972,0.292,0.2979,0.3026,0.3034,0.2827,0.2768,0.294,0.3086,0.3083,0.308,0.3077,0.3075,0,0.1641,0.1692,0.1707,0.1726,0.1835,0.1884,0.197,0.2142,0.2248,0.2451,0.2567,0.2741,0.2882,0.2996,0.3107,0.3079,0.332,0.3287,0.3116,0.31,0.3259,0.3242,0.3416,0.3415,0.3415,0.3415,0.3414,0,0.1557,0.1561,0.1683,0.1685,0.1754,0.1862,0.1983,0.2094,0.231,0.2457,0.261,0.2747,0.2963,0.3114,0.3171,0.3218,0.3386,0.3137,0.3134,0.3257,0.3238,0.3273,0.3254,0.3421,0.3419,0.3418,0.3417,0,0.1425,0.1498,0.153,0.1661,0.1711,0.1777,0.1988,0.209,0.2305,0.2508,0.2588,0.2839,0.3033,0.3178,0.3378,0.3291,0.3345,0.3304,0.3428,0.3428,0.3042,0.3023,0.3141,0.3134,0.3128,0.3123,0.3119,0,0.1336,0.1335,0.1499,0.1561,0.1617,0.1749,0.1849,0.2071,0.2193,0.2534,0.2613,0.2877,0.3018,0.3122,0.3261,0.3339,0.3287,0.3265,0.3132,0.3032,0.302,0.3009,0.2997,0.311,0.3108,0.3107,0.3105,0,0.1159,0.1247,0.132,0.1474,0.158,0.1652,0.1812,0.1903,0.2182,0.2403,0.2597,0.27,0.2902,0.3024,0.3099,0.3135,0.3252,0.3203,0.3214,0.309,0.2996,0.2987,0.2983,0.3085,0.3088,0.309,0.3091,0,0.107,0.1108,0.1264,0.1385,0.1495,0.1529,0.1623,0.1788,0.1944,0.2333,0.2397,0.2664,0.2907,0.292,0.2991,0.3008,0.2954,0.2818,0.2848,0.2872,0.2697,0.2533,0.2492,0,0,0,0,0,0.0983,0.1047,0.1156,0.1281,0.1366,0.1423,0.1593,0.1707,0.1998,0.2084,0.2248,0.2419,0.2556,0.2671,0.2639,0.2828,0.2931,0.2766,0.278,0.2974,0.2997,0.281,0,0,0,0,0,0,0.0965,0.1049,0.1137,0.1154,0.1201,0.1259,0.1354,0.153,0.1597,0.1916,0.2016,0.2234,0.2408,0.2573,0.2589,0.262,0.2564,0.2933,0.2925,0.2961,0.2982,0.3001,0.2816,0,0,0,0,0]},{"header":{"parameterUnit":"m.s-1","parameterCategory":2,"la1":30.2991,"la2":30.254,"lo1":-89.0895,"lo2":-89.0444,"dy":0.0017,"dx":0.0017,"nx":28,"ny":28,"refTime":"2023-07-30T21:00:00:Z","depth":"4","parameterNumber":3,"parameterNumberName":"V-component_of_CURRENTS"},"data":[0,0,0,0,0,0,0,0,0,0,0,0,0,0,0,0,0,0,0,0,0,0,0,0,0,0,0,0,0,0,0,0,0,0,0,0,0,0,0,0,0,0,0,0,0,0,0,0,0,0,0,0,0,0,0,0,0,0,0.0091,0.0091,0,0.0062,0.0061,0.0061,0.0046,0.0046,0.0047,0.0047,0.0006,0.0005,0.0004,0,0,0,0,0,0,0,0,0,0,0,0,0,0.0087,0.0088,0.0091,0.0091,0.0091,0.0062,0.0061,0.0061,0.0046,0.0046,0.0047,0.0047,0.0006,0.0005,0.0004,0,0,0,0,0,0,0,0,0,0,0,0,0,0.0076,0.0088,0.0091,0.008,0.0079,0.0062,0.0061,0.0061,0.0046,0.0046,0.0047,0.0047,0.0007,0.0005,0.0003,-0.0008,0,0,-0.0002,-0.0002,0,0,0,0,0,0,0,0,0.0077,0.0076,0.0082,0.0081,0.0079,0.0058,0.0045,0.0037,0.0046,0.0058,0.0047,0.0047,0.0023,0.002,0.0014,-0.001,-0.0012,-0.0002,-0.0003,-0.0004,-0.0004,0,0,0,0,0,0,0,0.0078,0.0077,0.0079,0.0082,0.008,0.006,0.0059,0.0043,0.004,0.0057,0.0056,0.0054,0.0022,0.0015,0.0012,-0.0012,-0.0002,-0.0003,-0.0004,-0.0005,-0.004,-0.004,0,0,0,0,0,0,0.0085,0.0078,0.008,0.0078,0.0079,0.006,0.0059,0.0065,0.004,0.0037,0.0054,0.0053,0.0018,0.0014,0.0011,0.0022,-0.0003,-0.0005,-0.0006,-0.004,-0.004,-0.004,0,0,0,0,0,0,0.0085,0.0085,0.0081,0.0077,0.0075,0.0061,0.0067,0.0064,0.0064,0.0038,0.0034,0.0057,0.0018,0.0013,0.0004,0.002,-0.0006,-0.0007,-0.004,-0.004,-0.004,0.0028,0,0,0,0,0,0,0.0085,0.0086,0.0092,0.0078,0.0076,0.0087,0.0067,0.0063,0.0062,0.0061,0.004,0.0035,0.0018,0.0006,0.0002,0.0017,-0.0009,-0.0041,-0.004,-0.004,0.0026,0.0031,0.0035,0,0,0,0,0,0.0085,0.0099,0.0093,0.0093,0.0085,0.0088,0.0085,0.0074,0.0062,0.0072,0.0051,0.0037,0.0004,0.0005,0.0,0.0015,-0.0041,-0.004,-0.004,0.0024,0.003,0.0035,0,0,0,0,0,0,0.0101,0.0098,0.0091,0.0104,0.0101,0.0086,0.0092,0.0079,0.0069,0.0065,0.0039,0.0034,0.0028,0.0009,0.0011,0.0002,-0.0021,-0.0022,0.0029,0.0034,0.0039,0.0068,-0.001,0,0,0,0,0,0.0107,0.0114,0.011,0.0118,0.0123,0.0107,0.0105,0.0096,0.0084,0.0079,0.0063,0.004,0.0023,0.002,-0.0001,-0.0001,-0.0039,0.0003,0.0007,0.0011,0.003,-0.003,-0.0029,-0.004,-0.004,-0.004,0,0,0.0115,0.0112,0.0117,0.0121,0.0119,0.0142,0.0107,0.0111,0.0127,0.0076,0.009,0.0053,0.0023,0.0022,0.0018,0.0011,-0.0008,0.0011,0.0015,0.0032,-0.003,-0.0029,-0.0028,-0.004,-0.004,-0.004,0,0,0.0145,0.0137,0.0162,0.0167,0.0167,0.0161,0.0167,0.0158,0.0154,0.0153,0.0118,0.0092,0.0073,0.0055,0.0042,0.0057,0.0012,0.0049,0.0105,0.0047,0.0047,0.0047,-0.0004,-0.0009,0.0058,0.0059,0.0059,0,0.0154,0.019,0.0168,0.0198,0.0214,0.0179,0.022,0.021,0.0194,0.0193,0.0168,0.012,0.0091,0.0086,0.0095,0.007,0.0031,0.0091,0.0053,0.0053,0.0052,-0.0001,-0.0007,0.0062,0.0061,0.0061,0.0061,0,0.0211,0.0241,0.0258,0.0289,0.0297,0.0323,0.0314,0.0314,0.0295,0.0277,0.0256,0.02,0.0176,0.0155,0.0136,0.0121,0.0092,0.006,0.0044,0.0057,0.0,-0.0008,0.0067,0.0065,0.0064,0.0064,0,0,0.0243,0.0292,0.0303,0.0338,0.0352,0.0369,0.0391,0.0407,0.0422,0.0374,0.0381,0.0332,0.0286,0.0269,0.0221,0.0175,0.0128,0.013,0.0125,0.0088,0.0003,-0.0005,-0.0015,0.0087,0.0086,0.0086,-0.0036,0,0.0304,0.0387,0.0391,0.0469,0.0516,0.0496,0.0527,0.0521,0.0498,0.0489,0.0409,0.0393,0.0334,0.0318,0.0262,0.0161,0.0112,0.0165,-0.0011,-0.0016,-0.0017,-0.0023,0.0083,-0.0042,-0.0044,-0.0045,-0.0046,0,0.037,0.0419,0.0518,0.0575,0.0594,0.0634,0.067,0.0689,0.0656,0.0633,0.0582,0.0509,0.0442,0.038,0.0218,0.0254,0.0148,0.0058,0.005,0.002,-0.0037,-0.0059,-0.0061,-0.006,-0.0059,-0.0058,-0.0057,0,0.042,0.0504,0.0591,0.0615,0.0675,0.0715,0.0744,0.074,0.0768,0.0724,0.0717,0.0606,0.0555,0.0404,0.0216,0.0219,0.0018,-0.001,-0.0119,-0.0122,-0.0108,-0.0107,-0.0122,-0.0122,-0.0122,-0.0122,-0.0121,0,0.0488,0.0555,0.0629,0.0681,0.0777,0.079,0.0881,0.0875,0.0886,0.092,0.0804,0.0775,0.0559,0.0409,0.0238,0.0034,0.0028,-0.0103,-0.0151,-0.0078,-0.0072,-0.0114,-0.0112,-0.0126,-0.0125,-0.0124,-0.0124,0,0.0534,0.0585,0.0681,0.0771,0.081,0.0876,0.0983,0.1042,0.1031,0.1064,0.1053,0.0903,0.0715,0.048,0.022,0.0075,-0.013,-0.0203,-0.0104,-0.0146,-0.0232,-0.0225,-0.032,-0.0321,-0.0322,-0.0323,-0.0323,0,0.0563,0.0626,0.0749,0.0818,0.0874,0.0986,0.1076,0.1116,0.1172,0.1135,0.1145,0.0975,0.085,0.0477,0.0223,-0.011,-0.0158,-0.0271,-0.0245,-0.0214,-0.0252,-0.0243,-0.0234,-0.0325,-0.0325,-0.0326,-0.0326,0,0.0609,0.0658,0.0736,0.0886,0.0999,0.113,0.1246,0.1294,0.1332,0.132,0.1225,0.1017,0.08,0.0494,0.0228,-0.0014,-0.0203,-0.0283,-0.0282,-0.0258,-0.0222,-0.0256,-0.0247,-0.033,-0.0329,-0.0329,-0.0328,0,0.0629,0.0687,0.0799,0.0934,0.1078,0.1225,0.1288,0.1355,0.1402,0.1352,0.1313,0.1062,0.0913,0.0543,0.0292,0.0056,0.0006,-0.0075,-0.0086,-0.0085,0.0013,0.0096,0.0052,0,0,0,0,0,0.0635,0.0721,0.0845,0.0988,0.1139,0.1236,0.1381,0.1433,0.1461,0.1417,0.137,0.1165,0.0787,0.0606,0.0377,0.027,-0.004,-0.0009,-0.014,-0.035,-0.0345,-0.0271,0,0,0,0,0,0,0.0641,0.0752,0.0835,0.1017,0.1131,0.1306,0.1409,0.1438,0.1409,0.1386,0.1193,0.109,0.0728,0.0919,0.0363,0.0289,0.0171,-0.0186,-0.0191,-0.0352,-0.0348,-0.0345,-0.0267,0,0,0,0,0]}]]